Location: Gajan
(43.0218°N, 1.1244°E)
Time: 02:31:03
(UTC+00:00)

Cosmos 2084 Rocket - Pass Details

Date: 22 April 2021
Orbit: 524 x 656 km, 62.8° (Epoch: 15 May)

Event Time Altitude Azimuth Distance (km) Brightness Sun altitude
Rises 20:53:40 0° 232° (SW) 2,645 6.9 -20.9°
Reaches altitude 10° 20:55:54 10° 239° (WSW) 1,763 6.1 -21.2°
Maximum altitude 20:59:42 44° 313° (NW) 744 4.4 -21.7°
Drops below altitude 10° 21:03:34 10° 26° (NNE) 1,808 6.2 -22.2°
Sets 21:05:54 0° 33° (NNE) 2,722 7.0 -22.5°
